Tracking 31027 objects as of 19-Jul-2025
HD Live streaming from Space Station
objects crossing your sky now

FENGYUN 1C DEB

Track FENGYUN 1C DEB now!
10-day predictions


NORAD ID: 30656
Int'l Code: 1999-025APN
Perigee: 734.1 km
Apogee: 783.1 km
Inclination: 99.0 °
Period: 99.9 minutes
Semi major axis: 7129 km
RCS: 0.021 m2 (small)
Launch date: May 10, 1999
Source: People's Republic of China (PRC)
Launch site: Taiyaun Space Center, China (TSC)

Note: This is SATELLITE DEBRIS
Your satellite tracking list
RESURS O1 DEB
Track 1 satellite(s)




NASA's NSSDC Master Catalog

Two Line Element Set (TLE):
1 30656U 99025APN 25199.41984961  .00005958  00000-0  18115-2 0  9998
2 30656  99.0141   4.8679 0034419 161.1682 199.0788 14.42134159949600
Source of the keplerian elements: AFSPC